Location: Bonny Doon Airfield
(37.0704°N, 122.1252°W)
Time: 17:52:46
(UTC-08:00)

Vanguard 1 Rocket - Pass Details

Date: 30 October 2017
Orbit: 655 x 4222 km, 34.3° (Epoch: 24 November)

Event Time Altitude Azimuth Distance (km) Brightness Sun altitude
Rises 01:13:56 0° 196° (SSW) 8,420 - -66.3°
Reaches altitude 10° 01:22:55 10° 182° (S) 7,121 - -65.8°
Maximum altitude 01:36:41 20° 145° (SE) 5,418 - -64.8°
Exits shadow 01:45:19 13° 111° (ESE) 5,146 11.2 -64.0°
Drops below altitude 10° 01:46:53 10° 106° (ESE) 5,211 11.3 -63.8°
Sets 01:51:42 0° 90° (E) 5,647 11.7 -63.3°
